Location: London
(42.9830°N, 81.2500°W)
Time: 16:17:24
(UTC-04:00)

Amateur Radio Satellites - All Passes

Search period start: 01 August 2015 15:47
Search period end: 02 August 2015 15:47
Location: London, 42.9830°N, 81.2500°W

Satellite Date Start Highest point End Downlink Frequencies (MHz)
Time Altitude Azimuth
CUSAT 1 01 Aug 15:48:25 15:52:31 71° 80° (E) 15:58:01 437.405
BEESAT 01 Aug 15:51:03 15:55:43 52° 288° (WNW) 16:00:19 436.000
STARS 01 Aug 16:09:46 16:13:30 27° 95° (E) 16:17:17 437.465
JAS-2 01 Aug 16:11:40 16:17:44 67° 260° (W) 16:24:40 435.910
SWISSCUBE 01 Aug 16:12:02 16:16:15 31° 292° (WNW) 16:20:22 437.505
GONETS M04 01 Aug 16:23:51 16:30:07 22° 61° (ENE) 16:36:46
Gurwin Techsat 1B 01 Aug 16:32:13 16:35:08 14° 273° (W) 16:37:46 435.225
ITUPSAT 1 01 Aug 16:33:35 16:37:19 22° 295° (WNW) 16:40:55 437.325
KKS-1 01 Aug 16:37:03 16:41:33 87° 103° (ESE) 16:46:01 437.445
HORYU 2 01 Aug 16:42:18 16:46:43 65° 258° (WSW) 16:51:11 437.375
AO-7 01 Aug 17:02:53 17:11:05 57° 258° (WSW) 17:19:18 29.400- 29.500
Cosmos 2504 01 Aug 17:09:14 17:13:01 13° 284° (WNW) 17:16:13 435.465 / 435.565
DANDE 01 Aug 17:14:24 17:17:32 23° 263° (W) 17:21:16 436.750
Cubesat XI-IV 01 Aug 17:25:55 17:29:08 17° 61° (ENE) 17:32:32 437.490
MOZHAYETS 4 01 Aug 17:30:34 17:34:57 40° 97° (E) 17:39:18
SO-50 01 Aug 17:31:35 17:35:33 24° 40° (NE) 17:39:33 436.795
CUSAT 1 01 Aug 17:33:27 17:35:02 11° 267° (W) 17:36:25 437.405
PCSat 01 Aug 17:40:35 17:44:55 24° 44° (NE) 17:49:19 145.827
STARS 01 Aug 17:46:04 17:49:56 30° 291° (WNW) 17:53:46 437.465
Cosmos 2499 01 Aug 17:48:25 17:54:05 19° 59° (ENE) 18:00:15 435.465 / 435.565
KKS-1 01 Aug 18:16:21 18:17:34 11° 299° (WNW) 18:18:32 437.445
CUTE-I 01 Aug 18:19:27 18:24:32 46° 70° (ENE) 18:29:40 437.470
GONETS M04 01 Aug 18:19:30 18:28:16 84° 263° (W) 18:37:01
VERMONT LUNAR 01 Aug 18:50:31 18:53:01 21° 157° (SSE) 18:55:31 437.305
Cubesat XI-IV 01 Aug 19:03:19 19:08:41 74° 256° (WSW) 19:14:05 437.490
MOZHAYETS 4 01 Aug 19:08:20 19:11:56 22° 294° (WNW) 19:15:25
SO-50 01 Aug 19:11:37 19:16:31 60° 240° (WSW) 19:21:17 436.795
PCSat 01 Aug 19:23:26 19:28:48 62° 243° (WSW) 19:34:07 145.827
CUBESAT XI-V 01 Aug 19:25:47 19:30:20 56° 99° (E) 19:34:51 437.345
Cosmos 2499 01 Aug 19:40:00 19:48:48 83° 82° (E) 19:57:43 435.465 / 435.565
DOVE 4 01 Aug 19:46:46 19:48:29 13° 63° (ENE) 19:50:23 437.250
BRITE-PL 01 Aug 19:50:11 19:54:12 38° 72° (ENE) 19:58:08 437.365/2234.400
GOMX 1 01 Aug 19:58:50 20:02:22 27° 69° (ENE) 20:05:56 467.674
CUTE-I 01 Aug 20:00:31 20:04:53 24° 268° (W) 20:09:07 437.470
SEEDS 01 Aug 20:01:25 20:03:07 12° 63° (ENE) 20:05:00 437.485
CUTE 1.7 + AOD 2 01 Aug 20:04:07 20:06:44 16° 65° (ENE) 20:09:30 437.475
HO-68 01 Aug 20:06:27 20:12:50 38° 63° (ENE) 20:19:19 435.675
STRAND 1 01 Aug 20:07:35 20:12:26 43° 98° (E) 20:17:17 437.568
CANX-2 01 Aug 20:11:54 20:15:07 22° 67° (ENE) 20:18:28 2200.000
PRISM 01 Aug 20:18:15 20:22:11 43° 99° (E) 20:26:06 437.425
GONETS M04 01 Aug 20:18:42 20:23:55 17° 282° (WNW) 20:28:38
AAUSAT CUBESAT 2 01 Aug 20:25:44 20:28:05 15° 65° (ENE) 20:30:35 437.432
VERMONT LUNAR 01 Aug 20:26:17 20:29:23 49° 173° (S) 20:32:29 437.305
ISS 01 Aug 20:35:05 20:36:10 11° 131° (SE) 20:37:22 145.825
PHONESAT 2.4 01 Aug 20:49:18 20:52:14 25° 158° (SSE) 20:55:12 2401.200-2431.200
RS-15 01 Aug 21:00:39 21:09:32 32° 106° (ESE) 21:18:58 29.354- 29.394
CUBESAT XI-V 01 Aug 21:04:25 21:07:22 17° 296° (WNW) 21:10:10 437.345
ZACube-1 01 Aug 21:13:30 21:15:39 14° 63° (ENE) 21:18:00 437.345
COMPASS 1 01 Aug 21:18:10 21:22:20 63° 75° (ENE) 21:26:32 437.405
DOVE 4 01 Aug 21:21:43 21:25:50 60° 260° (W) 21:29:57 437.250
CINEMA 3 01 Aug 21:26:35 21:30:41 65° 74° (ENE) 21:34:54 145.822/145.860
BRITE-PL 01 Aug 21:29:51 21:32:58 18° 268° (W) 21:35:52 437.365/2234.400
FUNcube-1 01 Aug 21:33:43 21:36:55 22° 67° (ENE) 21:40:16 145.935
SEEDS 01 Aug 21:34:10 21:38:23 68° 259° (W) 21:42:39 437.485
Cosmos 2499 01 Aug 21:34:39 21:41:07 23° 279° (W) 21:47:15 435.465 / 435.565
UWE-3 01 Aug 21:36:58 21:40:39 31° 70° (ENE) 21:44:28 435.000/436.395/437.385
GOMX 1 01 Aug 21:37:01 21:40:33 25° 266° (W) 21:43:57 467.674
CUTE 1.7 + AOD 2 01 Aug 21:38:09 21:42:18 49° 261° (W) 21:46:29 437.475
DELFI C3 01 Aug 21:41:31 21:45:00 29° 70° (ENE) 21:48:33 145.870
Oscar 11 01 Aug 21:44:27 21:48:36 47° 72° (ENE) 21:52:49 145.826/435.025
CANX-2 01 Aug 21:46:54 21:50:52 35° 264° (W) 21:54:49 2200.000
STRAND 1 01 Aug 21:47:18 21:51:26 25° 295° (WNW) 21:55:27 437.568
CUBEBUG 2 01 Aug 21:53:20 21:57:26 59° 74° (ENE) 22:01:40 437.445
HO-68 01 Aug 21:53:40 22:00:28 45° 262° (W) 22:07:17 435.675
PRISM 01 Aug 21:54:35 21:57:20 17° 295° (WNW) 21:59:55 437.425
HUMSAT D 01 Aug 21:54:48 21:57:17 16° 65° (ENE) 21:59:57 437.325/437.525
AAUSAT CUBESAT 2 01 Aug 21:59:10 22:03:17 52° 261° (W) 22:07:26 437.432
VERMONT LUNAR 01 Aug 22:02:51 22:05:56 46° 190° (S) 22:08:59 437.305
ISS 01 Aug 22:08:56 22:12:11 89° 350° (N) 22:15:27 145.825
DX 1 01 Aug 22:16:03 22:19:13 21° 66° (ENE) 22:22:31 434.975-435.025
Cosmos 2491 01 Aug 22:26:15 22:32:02 20° 59° (ENE) 22:38:12 435.465 / 435.565
PHONESAT 2.4 01 Aug 22:26:26 22:29:53 54° 173° (S) 22:33:19 2401.200-2431.200
VELOX 1 01 Aug 22:33:05 22:36:04 19° 65° (ENE) 22:39:11 145.980
M-CUBED/EXP-1 PRIME 01 Aug 22:44:50 22:49:19 38° 101° (E) 22:53:42 437.505
ESTCUBE 1 01 Aug 22:47:15 22:50:21 19° 65° (ENE) 22:53:35 437.505/2401.250
ZACube-1 01 Aug 22:47:25 22:51:33 57° 260° (W) 22:55:48 437.345
COMPASS 1 01 Aug 22:56:53 22:58:30 12° 273° (W) 22:59:52 437.405
TIGRISAT 01 Aug 23:03:49 23:07:06 19° 91° (E) 23:10:32 435.000
50 SAT 01 Aug 23:05:08 23:08:47 41° 72° (ENE) 23:12:31 437.505
ANTELSAT 01 Aug 23:05:45 23:09:15 21° 92° (E) 23:12:52 437.575/2403.000
CINEMA 3 01 Aug 23:07:31 23:08:30 10° 274° (W) 23:09:13 145.822/145.860
FUNcube-1 01 Aug 23:09:13 23:13:04 34° 264° (W) 23:16:58 145.935
RS-15 01 Aug 23:10:04 23:21:00 74° 308° (NW) 23:32:26 29.354- 29.394
AUBIESAT-1 01 Aug 23:13:25 23:18:10 63° 106° (ESE) 23:22:45 437.475
UWE-3 01 Aug 23:13:50 23:17:15 23° 267° (W) 23:20:40 435.000/436.395/437.385
DELFI C3 01 Aug 23:16:44 23:20:04 23° 266° (W) 23:23:22 145.870
UKube-1 01 Aug 23:21:35 23:25:55 89° 261° (W) 23:30:16 .
Oscar 11 01 Aug 23:22:17 23:25:06 16° 270° (W) 23:27:46 145.826/435.025
HUMSAT D 01 Aug 23:28:39 23:32:40 48° 261° (W) 23:36:45 437.325/437.525
AISAT 01 Aug 23:29:03 23:33:26 72° 75° (ENE) 23:37:50 437.250
CUBEBUG 2 01 Aug 23:32:50 23:34:39 12° 273° (W) 23:36:15 437.445
BEESAT 2 01 Aug 23:36:25 23:39:35 22° 114° (ESE) 23:42:52 435.950
VERMONT LUNAR 01 Aug 23:40:00 23:42:16 18° 205° (SSW) 23:44:29 437.305
CUBEBUG 1 01 Aug 23:41:09 23:45:22 53° 73° (ENE) 23:49:38 437.445
POLYITAN 1 01 Aug 23:44:33 23:47:36 19° 92° (E) 23:50:44 437.675
ISS 01 Aug 23:46:17 23:48:58 23° 345° (NNW) 23:51:38 145.825
AIST 1 01 Aug 23:48:55 23:53:11 72° 81° (E) 23:57:25
DX 1 01 Aug 23:51:11 23:55:15 39° 262° (W) 23:59:20 434.975-435.025
UNISAT 6 01 Aug 23:56:24 00:01:05 68° 102° (ESE) 00:05:46 437.425
POPSAT HIP 1 02 Aug 00:00:53 00:04:32 28° 95° (E) 00:08:14 437.405
BUGSAT 1 02 Aug 00:01:51 00:04:29 17° 92° (E) 00:07:14 437.445
PHONESAT 2.4 02 Aug 00:04:15 00:07:39 47° 191° (S) 00:11:02 2401.200-2431.200
VELOX 1 02 Aug 00:08:05 00:12:20 45° 261° (W) 00:16:34 145.980
QB50P2 02 Aug 00:08:33 00:12:28 34° 97° (E) 00:16:24 145.880/145.840
BEESAT 3 02 Aug 00:14:12 00:18:15 73° 122° (ESE) 00:22:21 437.485
SPROUT 02 Aug 00:14:38 00:18:31 36° 71° (ENE) 00:22:27 437.525
M-CUBED/EXP-1 PRIME 02 Aug 00:19:49 00:23:55 27° 298° (WNW) 00:27:51 437.505
Cosmos 2491 02 Aug 00:21:39 00:30:26 88° 84° (E) 00:39:10 435.465 / 435.565
ESTCUBE 1 02 Aug 00:22:31 00:26:54 47° 261° (W) 00:31:18 437.505/2401.250
TISAT 1 02 Aug 00:23:50 00:27:23 28° 69° (ENE) 00:31:00 437.305
DUCHIFAT 1 02 Aug 00:32:04 00:36:16 59° 101° (E) 00:40:28 145.980
QB50P1 02 Aug 00:35:53 00:40:09 69° 101° (E) 00:44:24 145.935-145.965
NANOSAT C BR1 02 Aug 00:36:49 00:41:04 69° 102° (ESE) 00:45:18 145.865
TIGRISAT 02 Aug 00:39:36 00:44:06 46° 288° (WNW) 00:48:36 435.000
50 SAT 02 Aug 00:41:14 00:43:36 15° 270° (W) 00:45:52 437.505
ANTELSAT 02 Aug 00:41:47 00:46:13 43° 289° (WNW) 00:50:40 437.575/2403.000
YUBILEINY 02 Aug 00:43:29 00:51:47 54° 91° (E) 01:00:15 435.215
AUBIESAT-1 02 Aug 00:49:11 00:52:22 18° 302° (WNW) 00:55:23 437.475
O/OREOS (USA 219) 02 Aug 01:05:16 01:07:30 14° 100° (E) 01:09:58 437.305
AISAT 02 Aug 01:09:18 01:10:36 11° 273° (W) 01:11:37 437.250
AIST 2 02 Aug 01:13:19 01:17:27 53° 119° (ESE) 01:21:37 435.215
BEESAT 2 02 Aug 01:13:36 01:17:27 38° 311° (NW) 01:21:20 435.950
CUBEBUG 1 02 Aug 01:19:35 01:22:06 15° 270° (W) 01:24:27 437.445
POLYITAN 1 02 Aug 01:19:40 01:23:40 39° 289° (WNW) 01:27:39 437.675
BEESAT 02 Aug 01:21:40 01:25:23 23° 66° (ENE) 01:29:12 436.000
ISS 02 Aug 01:23:50 01:26:12 18° 5° (N) 01:28:34 145.825
RS-15 02 Aug 01:26:18 01:35:50 30° 337° (NNW) 01:45:35 29.354- 29.394
UNISAT 6 02 Aug 01:34:41 01:37:22 15° 297° (WNW) 01:39:53 437.425
BUGSAT 1 02 Aug 01:36:19 01:40:09 40° 289° (WNW) 01:43:59 437.445
POPSAT HIP 1 02 Aug 01:36:43 01:40:21 27° 291° (WNW) 01:43:55 437.405
SWISSCUBE 02 Aug 01:41:32 01:45:57 38° 70° (ENE) 01:50:25 437.505
PHONESAT 2.4 02 Aug 01:42:40 01:45:12 18° 206° (SSW) 01:47:41 2401.200-2431.200
QB50P2 02 Aug 01:44:50 01:48:11 22° 293° (WNW) 01:51:26 145.880/145.840
SPROUT 02 Aug 01:51:28 01:54:44 20° 268° (W) 01:57:54 437.525
BEESAT 3 02 Aug 01:54:06 01:56:42 16° 321° (NW) 01:59:12 437.485
Cosmos 2504 02 Aug 01:57:11 02:01:03 16° 78° (ENE) 02:05:29 435.465 / 435.565
Oscar 19 02 Aug 01:59:23 02:03:18 22° 92° (E) 02:07:22 437.125/150
TISAT 1 02 Aug 01:59:37 02:03:08 25° 266° (W) 02:06:35 437.305
ITUPSAT 1 02 Aug 02:02:36 02:07:17 55° 73° (ENE) 02:12:01 437.325
DUCHIFAT 1 02 Aug 02:09:22 02:11:38 14° 296° (WNW) 02:13:44 145.980
QB50P1 02 Aug 02:13:40 02:15:31 12° 297° (WNW) 02:17:11 145.935-145.965
NANOSAT C BR1 02 Aug 02:14:35 02:16:23 12° 297° (WNW) 02:18:01 145.865
Cosmos 2491 02 Aug 02:20:27 02:26:15 19° 281° (W) 02:31:35 435.465 / 435.565
YUBILEINY 02 Aug 02:41:10 02:49:02 35° 292° (WNW) 02:56:50 435.215
O/OREOS (USA 219) 02 Aug 02:42:04 02:46:29 58° 296° (WNW) 02:50:56 437.305
AIST 2 02 Aug 02:53:03 02:56:20 21° 318° (NW) 02:59:33 435.215
BEESAT 02 Aug 02:58:28 03:03:01 41° 262° (W) 03:07:33 436.000
ISS 02 Aug 03:00:08 03:03:15 40° 25° (NNE) 03:06:21 145.825
Gurwin Techsat 1B 02 Aug 03:04:57 03:09:25 28° 94° (E) 03:13:58 435.225
STARS 02 Aug 03:07:39 03:11:18 27° 68° (ENE) 03:15:01 437.465
SWISSCUBE 02 Aug 03:20:00 03:23:56 24° 267° (W) 03:27:47 437.505
JAS-2 02 Aug 03:20:22 03:26:06 23° 87° (E) 03:32:05 435.910
ITAMSAT 1 02 Aug 03:21:50 03:26:30 34° 96° (E) 03:31:11 435.822/435.867
KKS-1 02 Aug 03:35:51 03:40:17 88° 82° (E) 03:44:45 437.445
Oscar 19 02 Aug 03:37:58 03:42:56 47° 290° (WNW) 03:47:54 437.125/150
ITUPSAT 1 02 Aug 03:42:25 03:45:35 17° 270° (W) 03:48:35 437.325
RS-15 02 Aug 03:44:03 03:53:05 26° 12° (NNE) 04:02:33 29.354- 29.394
Cosmos 2504 02 Aug 03:45:00 03:52:08 89° 277° (W) 03:59:53 435.465 / 435.565
HORYU 2 02 Aug 04:33:09 04:36:39 22° 93° (E) 04:40:14 437.375
MOZHAYETS 4 02 Aug 04:33:11 04:37:33 43° 71° (ENE) 04:41:58
ISS 02 Aug 04:36:43 04:39:37 29° 222° (SW) 04:42:29 145.825
STARS 02 Aug 04:43:50 04:47:41 29° 265° (W) 04:51:29 437.465
Gurwin Techsat 1B 02 Aug 04:44:35 04:49:32 39° 291° (WNW) 04:54:25 435.225
DANDE 02 Aug 04:45:55 04:48:29 23° 97° (E) 04:50:47 436.750
CUSAT 1 02 Aug 04:58:49 05:01:39 74° 98° (E) 05:04:15 437.405
ITAMSAT 1 02 Aug 05:01:24 05:05:58 32° 293° (WNW) 05:10:27 435.822/435.867
AO-7 02 Aug 05:03:17 05:11:16 49° 100° (E) 05:19:15 29.400- 29.500
JAS-2 02 Aug 05:04:06 05:11:59 80° 286° (WNW) 05:19:43 435.910
GONETS M04 02 Aug 05:27:35 05:33:48 23° 81° (E) 05:40:20
Cosmos 2504 02 Aug 05:41:02 05:45:48 17° 302° (WNW) 05:50:25 435.465 / 435.565
RS-15 02 Aug 05:57:50 06:09:08 52° 43° (NE) 06:20:56 29.354- 29.394
HORYU 2 02 Aug 06:09:15 06:13:25 37° 290° (WNW) 06:17:32 437.375
MOZHAYETS 4 02 Aug 06:11:30 06:15:00 20° 269° (W) 06:18:24
CUBESAT XI-V 02 Aug 06:29:46 06:34:23 60° 73° (ENE) 06:39:00 437.345
Cosmos 2499 02 Aug 06:32:58 06:33:19 10° 73° (ENE) 06:34:18 435.465 / 435.565
CUTE-I 02 Aug 06:36:46 06:39:59 17° 89° (E) 06:43:24 437.470
JAS-2 02 Aug 06:50:42 06:55:58 19° 304° (NW) 07:00:58 435.910
AO-7 02 Aug 06:56:18 07:04:00 42° 299° (WNW) 07:11:32 29.400- 29.500
PRISM 02 Aug 07:08:58 07:12:48 37° 71° (ENE) 07:16:41 437.425
Cubesat XI-IV 02 Aug 07:19:52 07:24:53 41° 97° (E) 07:29:54 437.490
GONETS M04 02 Aug 07:21:08 07:29:50 76° 280° (W) 07:38:34
STRAND 1 02 Aug 07:24:11 07:29:18 69° 73° (ENE) 07:34:26 437.568
BEESAT 2 02 Aug 07:54:06 07:57:16 22° 43° (NE) 08:00:28 435.950
BRITE-PL 02 Aug 07:55:08 07:56:22 11° 88° (E) 07:57:55 437.365/2234.400
CUBESAT XI-V 02 Aug 08:09:36 08:12:17 15° 272° (W) 08:14:46 437.345
RS-15 02 Aug 08:10:31 08:21:56 56° 246° (WSW) 08:33:37 29.354- 29.394
CUTE-I 02 Aug 08:15:19 08:20:37 65° 287° (WNW) 08:25:52 437.470
Cosmos 2499 02 Aug 08:17:32 08:24:49 64° 93° (E) 08:32:46 435.465 / 435.565
PCSat 02 Aug 08:25:26 08:28:10 15° 105° (ESE) 08:31:11 145.827
AUBIESAT-1 02 Aug 08:30:26 08:31:37 11° 54° (NE) 08:33:01 437.475
BEESAT 3 02 Aug 08:31:54 08:35:54 57° 53° (NE) 08:39:50 437.485
PRISM 02 Aug 08:45:17 08:48:23 19° 267° (W) 08:51:24 437.425
AO-7 02 Aug 08:53:42 08:54:41 10° 321° (NW) 08:55:13 29.400- 29.500
Cubesat XI-IV 02 Aug 09:00:20 09:04:50 28° 295° (WNW) 09:09:13 437.490
STRAND 1 02 Aug 09:06:05 09:09:05 15° 272° (W) 09:11:51 437.568
SEEDS 02 Aug 09:18:24 09:21:24 19° 91° (E) 09:24:29 437.485
DOVE 4 02 Aug 09:19:00 09:23:10 33° 96° (E) 09:27:35 437.250
HO-68 02 Aug 09:20:06 09:26:29 34° 95° (E) 09:32:58 435.675
CINEMA 3 02 Aug 09:21:00 09:23:52 16° 90° (E) 09:27:00 145.822/145.860
CUTE 1.7 + AOD 2 02 Aug 09:22:43 09:26:19 26° 94° (E) 09:29:56 437.475
GONETS M04 02 Aug 09:23:17 09:28:34 16° 304° (NW) 09:33:24
SO-50 02 Aug 09:26:42 09:31:02 37° 116° (ESE) 09:35:33 436.795
BRITE-PL 02 Aug 09:31:01 09:35:24 72° 285° (WNW) 09:40:06 437.365/2234.400
CANX-2 02 Aug 09:31:02 09:35:00 35° 96° (E) 09:38:57 2200.000
BEESAT 2 02 Aug 09:31:38 09:35:32 44° 242° (WSW) 09:39:21 435.950
M-CUBED/EXP-1 PRIME 02 Aug 09:33:24 09:37:22 51° 67° (ENE) 09:41:43 437.505
AIST 2 02 Aug 09:34:12 09:38:15 45° 51° (NE) 09:42:15 435.215
GOMX 1 02 Aug 09:35:50 09:40:23 77° 101° (E) 09:45:15 467.674
AAUSAT CUBESAT 2 02 Aug 09:41:38 09:44:55 22° 93° (E) 09:48:16 437.432
CUBEBUG 2 02 Aug 09:44:48 09:46:53 13° 88° (E) 09:49:13 437.445
AUBIESAT-1 02 Aug 10:01:28 10:05:35 89° 58° (ENE) 10:10:03 437.475
TIGRISAT 02 Aug 10:04:01 10:06:58 18° 65° (ENE) 10:10:05 435.000
PCSat 02 Aug 10:05:33 10:10:59 80° 301° (WNW) 10:16:27 145.827
ANTELSAT 02 Aug 10:06:07 10:09:15 20° 66° (ENE) 10:12:35 437.575/2403.000
BEESAT 3 02 Aug 10:11:15 10:13:25 14° 249° (WSW) 10:15:23 437.485
Cosmos 2499 02 Aug 10:12:31 10:18:47 26° 296° (WNW) 10:25:15 435.465 / 435.565
RS-15 02 Aug 10:29:32 10:32:14 10° 264° (W) 10:33:36 29.354- 29.394
ZACube-1 02 Aug 10:35:10 10:38:57 26° 94° (E) 10:42:50 437.345
COMPASS 1 02 Aug 10:36:05 10:40:19 76° 285° (WNW) 10:44:31 437.405
POLYITAN 1 02 Aug 10:39:01 10:41:41 17° 65° (ENE) 10:44:30 437.675
YUBILEINY 02 Aug 10:52:40 10:59:52 28° 64° (ENE) 11:07:18 435.215
SEEDS 02 Aug 10:53:22 10:57:23 39° 288° (WNW) 11:01:19 437.485
BUGSAT 1 02 Aug 10:53:39 10:55:45 14° 65° (ENE) 10:58:00 437.445
DELFI C3 02 Aug 10:53:58 10:57:49 41° 98° (E) 11:01:39 145.870
POPSAT HIP 1 02 Aug 10:54:49 10:58:09 24° 68° (ENE) 11:01:34 437.405
FUNcube-1 02 Aug 10:55:56 11:00:14 41° 97° (E) 11:04:35 145.935
UNISAT 6 02 Aug 10:56:11 11:00:29 65° 75° (ENE) 11:04:56 437.425
CINEMA 3 02 Aug 10:56:49 11:01:25 57° 286° (WNW) 11:06:12 145.822/145.860
DOVE 4 02 Aug 10:56:54 11:00:51 28° 291° (WNW) 11:04:55 437.250
CUTE 1.7 + AOD 2 02 Aug 10:58:28 11:02:13 29° 290° (WNW) 11:05:53 437.475
UWE-3 02 Aug 11:01:17 11:05:52 63° 101° (E) 11:10:29 435.000/436.395/437.385
QB50P2 02 Aug 11:02:27 11:06:06 30° 69° (ENE) 11:09:48 145.880/145.840
Oscar 11 02 Aug 11:06:39 11:11:03 86° 103° (ESE) 11:15:24 145.826/435.025
SO-50 02 Aug 11:07:17 11:11:38 33° 315° (NW) 11:16:04 436.795
CANX-2 02 Aug 11:07:22 11:10:43 22° 293° (WNW) 11:13:59 2200.000
HO-68 02 Aug 11:07:34 11:14:26 49° 294° (WNW) 11:21:14 435.675
UKube-1 02 Aug 11:09:40 11:11:51 14° 90° (E) 11:14:14 .
M-CUBED/EXP-1 PRIME 02 Aug 11:10:04 11:12:35 15° 267° (W) 11:15:05 437.505
HUMSAT D 02 Aug 11:11:52 11:15:27 25° 94° (E) 11:19:05 437.325/437.525
O/OREOS (USA 219) 02 Aug 11:12:00 11:16:10 33° 59° (ENE) 11:20:21 437.305
AIST 2 02 Aug 11:13:33 11:16:31 18° 248° (WSW) 11:19:20 435.215
GOMX 1 02 Aug 11:16:06 11:18:06 12° 296° (WNW) 11:19:56 467.674
AAUSAT CUBESAT 2 02 Aug 11:16:48 11:20:36 32° 290° (WNW) 11:24:18 437.432
CUBEBUG 2 02 Aug 11:19:26 11:24:04 68° 285° (WNW) 11:28:47 437.445
AISAT 02 Aug 11:20:36 11:22:25 13° 88° (E) 11:24:30 437.250
DUCHIFAT 1 02 Aug 11:25:07 11:29:07 48° 73° (ENE) 11:33:11 145.980
QB50P1 02 Aug 11:29:17 11:33:23 56° 74° (ENE) 11:37:33 145.935-145.965
NANOSAT C BR1 02 Aug 11:29:59 11:34:05 56° 74° (ENE) 11:38:14 145.865
Cosmos 2491 02 Aug 11:30:24 11:36:10 21° 80° (E) 11:42:21 435.465 / 435.565
DX 1 02 Aug 11:38:27 11:42:20 31° 97° (E) 11:46:13 434.975-435.025
TIGRISAT 02 Aug 11:39:13 11:43:23 45° 262° (W) 11:47:41 435.000
ANTELSAT 02 Aug 11:41:38 11:45:47 41° 263° (W) 11:50:01 437.575/2403.000
PCSat 02 Aug 11:51:54 11:55:21 16° 323° (NW) 11:58:40 145.827
VELOX 1 02 Aug 11:57:38 12:01:31 30° 96° (E) 12:05:26 145.980
ZACube-1 02 Aug 12:11:15 12:15:20 33° 290° (WNW) 12:19:24 437.345
POLYITAN 1 02 Aug 12:13:14 12:17:16 45° 261° (W) 12:21:20 437.675
50 SAT 02 Aug 12:13:41 12:17:37 56° 100° (E) 12:21:31 437.505
ESTCUBE 1 02 Aug 12:14:20 12:18:23 33° 96° (E) 12:22:26 437.505/2401.250
AIST 1 02 Aug 12:19:11 12:23:15 40° 93° (E) 12:27:19
BUGSAT 1 02 Aug 12:26:54 12:30:51 51° 260° (W) 12:34:47 437.445
DELFI C3 02 Aug 12:29:52 12:32:36 17° 294° (WNW) 12:35:12 145.870
POPSAT HIP 1 02 Aug 12:30:11 12:33:54 30° 264° (W) 12:37:38 437.405
FUNcube-1 02 Aug 12:32:50 12:36:19 22° 293° (WNW) 12:39:44 145.935
UNISAT 6 02 Aug 12:35:58 12:37:51 12° 273° (W) 12:39:31 437.425
QB50P2 02 Aug 12:38:32 12:42:01 24° 266° (W) 12:45:26 145.880/145.840
UWE-3 02 Aug 12:39:12 12:41:57 15° 296° (WNW) 12:44:33 435.000/436.395/437.385
UKube-1 02 Aug 12:44:09 12:48:23 54° 287° (WNW) 12:52:36 .
Oscar 11 02 Aug 12:45:48 12:46:37 10° 299° (WNW) 12:47:11 145.826/435.025
HUMSAT D 02 Aug 12:47:22 12:51:11 30° 290° (WNW) 12:54:57 437.325/437.525
YUBILEINY 02 Aug 12:48:47 12:57:33 69° 266° (W) 13:06:16 435.215
O/OREOS (USA 219) 02 Aug 12:51:38 12:55:29 26° 256° (WSW) 12:59:14 437.305
AISAT 02 Aug 12:55:07 12:59:30 63° 286° (WNW) 13:03:52 437.250
HO-68 02 Aug 12:59:46 13:00:38 10° 314° (NW) 13:01:05 435.675
DUCHIFAT 1 02 Aug 13:02:48 13:05:16 15° 270° (W) 13:07:34 145.980
CUBEBUG 1 02 Aug 13:05:02 13:09:24 85° 283° (WNW) 13:13:43 437.445
QB50P1 02 Aug 13:07:41 13:09:41 13° 271° (W) 13:11:29 145.935-145.965
NANOSAT C BR1 02 Aug 13:08:22 13:10:21 13° 271° (W) 13:12:08 145.865
DX 1 02 Aug 13:14:53 13:18:28 25° 293° (WNW) 13:21:58 434.975-435.025
Oscar 19 02 Aug 13:16:58 13:21:33 35° 68° (ENE) 13:26:12 437.125/150
Cosmos 2491 02 Aug 13:23:18 13:32:06 83° 279° (W) 13:40:54 435.465 / 435.565
Cosmos 2504 02 Aug 13:29:35 13:37:00 34° 69° (ENE) 13:44:42 435.465 / 435.565
VELOX 1 02 Aug 13:34:16 13:37:59 26° 292° (WNW) 13:41:37 145.980
SPROUT 02 Aug 13:35:45 13:40:02 63° 101° (E) 13:44:18 437.525
JAS-2 02 Aug 13:38:35 13:39:24 10° 48° (NE) 13:40:38 435.910
TISAT 1 02 Aug 13:42:14 13:46:16 44° 99° (E) 13:50:19 437.305
50 SAT 02 Aug 13:49:50 13:51:46 13° 296° (WNW) 13:53:32 437.505
ESTCUBE 1 02 Aug 13:51:25 13:55:08 25° 293° (WNW) 13:58:46 437.505/2401.250
AIST 1 02 Aug 13:58:03 14:01:08 18° 291° (WNW) 14:04:05
ITUPSAT 1 02 Aug 14:04:06 14:06:14 13° 88° (E) 14:08:36 437.325
AO-7 02 Aug 14:14:44 14:19:39 18° 48° (NE) 14:24:53 29.400- 29.500
Gurwin Techsat 1B 02 Aug 14:26:43 14:31:47 48° 70° (ENE) 14:36:54 435.225
ITAMSAT 1 02 Aug 14:40:30 14:45:36 57° 72° (ENE) 14:50:44 435.822/435.867
YUBILEINY 02 Aug 14:49:11 14:52:53 13° 285° (WNW) 14:55:56 435.215
Oscar 19 02 Aug 14:56:28 15:00:57 29° 265° (W) 15:05:24 437.125/150
BEESAT 02 Aug 14:57:30 15:02:05 46° 99° (E) 15:06:41 436.000
SPROUT 02 Aug 15:13:28 15:15:39 13° 297° (WNW) 15:17:40 437.525
JAS-2 02 Aug 15:16:51 15:22:49 52° 69° (ENE) 15:29:38 435.910
SWISSCUBE 02 Aug 15:18:11 15:22:59 82° 104° (ESE) 15:27:45 437.505
TISAT 1 02 Aug 15:18:52 15:21:44 18° 295° (WNW) 15:24:29 437.305
DANDE 02 Aug 15:21:08 15:24:23 26° 76° (ENE) 15:28:35 436.750
Cosmos 2504 02 Aug 15:21:25 15:29:38 57° 269° (W) 15:37:58 435.465 / 435.565
Cosmos 2491 02 Aug 15:24:42 15:30:37 18° 302° (WNW) 15:36:07 435.465 / 435.565
KKS-1 02 Aug 15:27:15 15:29:54 16° 90° (E) 15:32:45 437.445
CUSAT 1 02 Aug 15:30:13 15:34:22 56° 78° (ENE) 15:39:56 437.405
HORYU 2 02 Aug 15:32:24 15:35:55 24° 67° (ENE) 15:39:32 437.375
GONETS M04 02 Aug 15:36:52 15:39:25 12° 50° (NE) 15:42:36
